Location: Newark
(25.6108°S, 54.5803°W)
Time: 16:00:48
(UTC+00:00)

Courier 1B Rocket - Pass Details

Date: 30 October 2020
Orbit: 920 x 1202 km, 28.2° (Epoch: 22 November)

Event Time Altitude Azimuth Distance (km) Brightness Sun altitude
Rises 13:10:23 0° 257° (WSW) 3,768 7.7 57.1°
Reaches altitude 10° 13:13:09 10° 257° (WSW) 2,775 7.2 57.7°
Maximum altitude 13:19:51 85° 345° (NNW) 965 6.3 59.1°
Drops below altitude 10° 13:26:11 10° 73° (ENE) 2,627 7.9 60.5°
Sets 13:28:45 0° 73° (ENE) 3,556 8.4 61.1°
